Regional Weather Roundup
Issued by NWS

Home | Current Version | Previous Version | Graphics & Text | Print | Product List | Glossary On
Versions: 1 2 3 4 5 6 7 8 9 10 11 12 13 14 15 16 17 18 19 20 21 22 23 24 25 26 27 28 29 30 31 32 33 34 35 36 37 38 39 40 41 42 43 44 45 46 47 48 49 50
000
ASUS43 KDTX 220501
RWRMI
MICHIGAN HOURLY REGIONAL WEATHER ROUNDUP
NATIONAL WEATHER SERVICE DETROIT/PONTIAC MI
100 AM EDT FRI AUG 22 2014

NOTE: "FAIR" INDICATES FEW OR NO CLOUDS BELOW 12,000 FEET WITH NO
SIGNIFICANT WEATHER AND/OR OBSTRUCTION TO VISIBILITY.

MIZ047>049-052>055-059>063-066>070-074>076-081>083-220600-
SOUTHEAST LOWER MICHIGAN

CITY           SKY/WX    TMP DP  RH WIND       PRES   REMARKS
ADRIAN         CLOUDY    73  70  90 CALM      30.00S
ALMA           CLOUDY    68  66  93 E3        30.01R
ANN ARBOR      FOG       70  68  93 CALM      29.99S VSB 1/2
BAD AXE        FOG       57  57 100 CALM      30.01S VSB 1/4
CARO           PTCLDY    63  63  99 CALM      30.00S
DETROIT CITY   CLOUDY    72  67  84 CALM      29.99R
DETROIT        CLOUDY    73  69  87 CALM      29.99S
FLINT          CLOUDY    72  65  78 E6        30.00S
GROSSE ILE     HVY RAIN  75  72  88 CALM      29.97S
HILLSDALE      PTCLDY    68  68 100 CALM      30.00S FOG
HOWELL         CLOUDY    70  69  97 CALM      30.00S FOG

CITY           SKY/WX    TMP DP  RH WIND       PRES   REMARKS
JACKSON        MOCLDY    70  69  97 CALM      30.00R FOG
LAMBERTVILLE   CLOUDY    73  70  88 CALM      29.99S
LANSING        CLOUDY    71  68  90 CALM      30.00R
LAPEER         LGT RAIN  65  63  91 CALM      30.01S
MASON          FOG       69  68  97 CALM      29.99S VSB 1/4
MONROE         MOCLDY    73  70  88 CALM      29.97S
MT. CLEMENS    CLOUDY    67  63  86 N6        29.99R
PONTIAC        CLOUDY    69  65  86 E6        30.00R
PORT HOPE        N/A     61  59  93 SW3       29.99S
PORT HURON     CLOUDY    66  64  94 CALM      30.00R
TRI CITIES     CLOUDY    69  65  86 E5        30.01S
TROY           LGT RAIN  69  66  92 N6        30.01S
SAGINAW HB     CLOUDY    68  68 100 CALM      30.00R
$$
MIZ043>046-050>051-056>058-064>065-071>073-077>080-220600-
SOUTHWEST LOWER MICHIGAN

CITY           SKY/WX    TMP DP  RH WIND       PRES   REMARKS
BATTLE CREEK   CLOUDY    72  70  93 CALM      30.00R FOG
BENTON HARBOR  MOCLDY    72  70  93 S5        29.97R
BIG RAPIDS     CLOUDY    67  67 100 CALM      29.99S
COLDWATER      PTCLDY    69  68  96 CALM      29.99S FOG
FREMONT        CLOUDY    69  68  98 CALM      29.98S FOG
HOLLAND        PTCLDY    71  70  96 CALM      29.98R FOG
GRAND RAPIDS   MOCLDY    71  71 100 CALM      29.99R FOG
IONIA          CLOUDY    69  68  95 CALM      29.99S
KALAMAZOO      MOCLDY    72  69  90 CALM      29.99S FOG
LUDINGTON      FOG       67  66  97 CALM      29.97F VSB 1/2
MARSHALL       CLOUDY    69  69  99 CALM      29.99R FOG
MOUNT PLEASANT MOCLDY    68  66  93 E3        30.00S
MUSKEGON       CLOUDY    72  69  90 SE3       29.98S FOG
SOUTH HAVEN    MOCLDY    72  72 100 CALM      29.97S
$$
MIZ016>042-220600-
NORTHERN LOWER MICHIGAN

CITY           SKY/WX    TMP DP  RH WIND       PRES   REMARKS
ALPENA         FOG       60  59  96 CALM      30.01R VSB 1/2
BEAVER ISLAND  CLOUDY    65  64  96 CALM      29.99R
BELLAIRE       CLOUDY    66  64  93 CALM      29.98R
CADILLAC       CLOUDY    68  66  94 CALM      30.00S
CHARLEVOIX     CLOUDY    67  65  94 SE3       30.01S
FRANKFORT      CLOUDY    68  64  86 CALM      29.97S
GAYLORD        MOCLDY    64  62  93 SE5       30.01F
GRAYLING       CLOUDY    69  67  94 SE5       30.01F
HARBOR SPRINGS MOCLDY    66  63  91 NE5       29.99S
HOUGHTON LAKE  CLOUDY    66  64  93 SE5       30.01F
MANISTEE       MOCLDY    66  64  94 CALM      29.98S
OSCODA         MOCLDY    58  57  98 CALM      30.00S FOG
PELLSTON       MOCLDY    60  58  92 CALM      29.99F
ROGERS CITY    CLEAR     59  59 100 SW3       30.02R
TRAVERSE CITY  MOCLDY    68  64  87 CALM      29.96F
$$
MIZ007>008-015-220600-
EASTERN UPPER MICHIGAN

CITY           SKY/WX    TMP DP  RH WIND       PRES   REMARKS
KINROSS        MOCLDY    63  61  94 CALM      30.00S
MACKINAC ISLAN CLEAR     62  62 100 NE6       29.99F
NEWBERRY       FOG       58  58 100 NW6       30.00S VSB 1/2
S. S. MARIE    MOCLDY    64  61  90 CALM      29.99F
$$
MIZ004>006-011>014-085-220600-
CENTRAL UPPER MICHIGAN

CITY           SKY/WX    TMP DP  RH WIND       PRES   REMARKS
MANISTIQUE     CLOUDY    62  61  97 CALM      29.99R
ESCANABA       CLOUDY    64  61  88 CALM      29.98S
MENOMINEE      MOCLDY    66  61  82 SE3       29.95S
SAWYER-GWINN   CLOUDY    65  62  88 S3        30.00S
$$
MIZ001>003-009>011-084-220600-
WESTERN UPPER MICHIGAN

CITY           SKY/WX    TMP DP  RH WIND       PRES   REMARKS
IRON MOUNTAIN  CLOUDY    65  62  90 SE5       29.96S
HOUGHTON       FOG       57  55  93 E5        29.96F VSB 3/4
COPPER HARBOR    N/A     58  55  90 SW6       29.96F
IRONWOOD       MOCLDY    68  64  88 SE5       29.90S
$$

ABBREVIATIONS USED IN REMARKS
   TC - TEMPERATURE IN CELSIUS
  WCI - WIND CHILL INDEX
   HX - HEAT INDEX
  VSB - VISIBILITY



USA.gov is the U.S. government's official web portal to all federal, state and local government web resources and services.